Location: Norton
(51.3000°N, 0.8167°E)
Time: 13:05:07
(UTC+00:00)

HJ-1C - Pass Details

Date: 03 March 2021
Orbit: 428 x 441 km, 97.1° (Epoch: 11 April)

Event Time Altitude Azimuth Distance (km) Brightness Sun altitude
Rises 18:32:55 0° 159° (SSE) 2,417 6.9 -8.9°
Reaches altitude 10° 18:34:56 10° 156° (SSE) 1,551 5.9 -9.2°
Maximum altitude 18:38:14 65° 74° (ENE) 488 3.3 -9.7°
Drops below altitude 10° 18:41:32 10° 352° (N) 1,557 6.3 -10.2°
Sets 18:43:34 0° 350° (N) 2,429 7.3 -10.6°
